This demonstration page uses our WeatherBlox Daily Observations layout. Learn more.

Left ArrowRight Arrow

Hourly Observations for November 10, 2015

Temp ( °F °C ) Dew Point ( °F °C ) Humidity (%) Winds ( mph kmh ) Pressure ( in mb ) Visibility ( mi km ) Precip ( " mm )
12:53 am 00:53 Clear with Mist and Fog 54 12.2 52 11.1 93 93 SE 8 13 29.93 1014 5 8 0.00 0.00
1:53 am 01:53 Clear with Mist and Fog 52 11.1 50 10 93 93 ESE 6 9 29.93 1014 3 5 0.00 0.00
2:22 am 02:22 Mostly Clear with Mist and Fog 52 11 50 10 94 94 ESE 6 9 30.00 1016 3 4 0.00 0.00
2:36 am 02:36 Mostly Cloudy with Mist and Fog 53 11.7 51 10.6 93 93 SE 7 11 29.97 1015 3 4 0.00 0.00
2:51 am 02:51 Mostly Cloudy with Mist and Fog 54 12 52 11 94 94 SE 8 13 29.97 1015 1 1 0.00 0.00
2:53 am 02:53 Mostly Cloudy with Mist and Fog 53 11.7 52 11.1 96 96 SE 9 15 29.92 1013 1 1 0.00 0.00
3:09 am 03:09 Mostly Cloudy with Fog 53 11.7 52 11.1 96 96 SE 9 15 29.97 1015 0 0 0.00 0.00
3:53 am 03:53 Mostly Cloudy with Fog 54 12.2 52 11.1 93 93 ESE 10 17 29.90 1013 0 0 0.00 0.00
4:24 am 04:24 Mostly Cloudy with Fog 54 12 54 12 100 100 ESE 8 13 29.97 1015 1 1 0.00 0.00
4:31 am 04:31 Mostly Cloudy with Fog 54 12.2 52 11.1 93 93 ESE 8 13 29.97 1015 0 0 0.00 0.00
4:53 am 04:53 Mostly Cloudy with Fog 54 12.2 52 11.1 93 93 ESE 9 15 29.90 1013 0 0 0.00 0.00
5:12 am 05:12 Mostly Cloudy with Fog 54 12 52 11 94 94 ESE 12 19 29.97 1015 1 1 0.00 0.00
5:53 am 05:53 Mostly Cloudy with Fog 53 11.7 52 11.1 96 96 SE 10 17 29.92 1013 1 1 0.00 0.00
6:53 am 06:53 Mostly Cloudy with Fog 53 11.7 52 11.1 96 96 SE 8 13 29.95 1014 1 1 0.00 0.00
7:35 am 07:35 Mostly Cloudy with Fog 54 12.2 53 11.7 97 97 SE 3 6 30.00 1016 0 0 0.00 0.00
7:53 am 07:53 Mostly Cloudy with Fog 54 12.2 53 11.7 97 97 SE 8 13 29.96 1015 1 1 0.00 0.00
8:29 am 08:29 Cloudy with Mist and Fog 55 12.8 54 12.2 96 96 SE 9 15 30.00 1016 1 2 0.00 0.00
8:44 am 08:44 Cloudy with Mist and Fog 55 13 54 12 94 94 SE 10 17 30.00 1016 3 4 0.00 0.00
8:53 am 08:53 Cloudy with Mist and Fog 55 12.8 54 12.2 96 96 SE 8 13 29.97 1015 2 3 0.00 0.00
9:04 am 09:04 Cloudy with Mist and Fog 55 13 54 12 94 94 SE 8 13 30.03 1017 3 5 0.00 0.00
9:53 am 09:53 Cloudy 57 13.9 54 12.2 90 90 SSE 8 13 29.98 1015 7 11 0.00 0.00
10:16 am 10:16 Cloudy 59 15 54 12 82 82 SSE 8 13 30.00 1016 10 16 0.00 0.00
10:40 am 10:40 Partly Cloudy 63 17 55 13 77 77 SE 7 11 29.97 1015 10 16 0.00 0.00
10:53 am 10:53 Sunny 63 17.2 55 12.8 76 76 SSE 7 11 29.97 1015 10 16 0.00 0.00
11:53 am 11:53 Sunny 66 18.9 55 12.8 68 68 VRB 6 9 29.93 1014 10 16 0.00 0.00
8:53 pm 20:53 Clear 61 16.1 55 12.8 81 81 SE 12 19 29.80 1009 10 16 0.00 0.00
9:53 pm 21:53 Clear 59 15 54 12.2 83 83 SE 10 17 29.79 1009 10 16 0.00 0.00
10:53 pm 22:53 Clear 58 14.4 54 12.2 87 87 SSE 10 17 29.77 1008 10 16 0.00 0.00
11:53 pm 23:53 Clear 57 13.9 54 12.2 90 90 SSE 10 17 29.77 1008 10 16 0.00 0.00

Powered by AerisWeather